Theta_e
316 316 317 317 317 319 320 322 320 321 321 316 317 319 321 325 325 326 326 327 327 328 328 328 329 328 330 330 340 349 349 351 351 347 347 351 350 348 348 347 349 349 337 328 328 324 317 314 313 315 314 316 317 319 317 317 318 320 323 327 332 335 337 337 338 338 338 338 337 337 335 335 335 335 335 334 333 330 330 328 327 327 325 317 320 332 336 338 338 337 335 334 335 335 335 335 334
316 316 317 318 319 320 321 322 319 318 318 314 318 320 322 326 326 325 327 327 327 328 329 329 329 328 330 332 338 348 352 352 353 354 353 350 349 349 349 348 348 347 333 328 329 322 317 313 313 315 315 316 318 319 317 318 320 322 326 331 335 336 338 338 338 337 338 337 336 336 334 333 333 333 332 331 329 325 322 319 317 317 319 314 317 331 337 337 338 336 335 335 335 334 333 331 330
315 315 316 319 320 321 322 321 318 315 315 314 317 323 324 325 325 326 327 327 328 329 329 328 329 331 330 334 337 345 353 352 352 353 351 349 350 350 349 348 349 347 332 328 329 321 316 313 314 315 315 317 318 319 318 320 324 327 330 334 336 337 338 338 338 337 337 337 335 333 331 329 327 326 325 323 320 316 312 310 309 309 312 311 317 332 337 337 336 336 335 335 334 332 329 325 324
314 314 315 319 320 320 321 320 320 316 315 314 315 322 325 324 325 326 327 326 327 327 328 328 328 330 331 337 339 346 352 353 352 351 351 350 351 350 349 348 348 346 333 330 328 321 316 313 314 314 315 317 319 319 319 323 327 328 330 334 336 337 337 337 337 337 337 335 334 332 330 325 318 316 314 312 310 309 308 308 308 307 309 308 316 331 335 335 334 334 335 334 333 329 322 319 318
314 314 316 319 319 319 321 320 320 317 316 317 317 322 324 325 326 326 327 325 326 326 326 328 328 329 339 342 341 348 351 352 352 351 351 352 352 350 348 347 348 344 334 331 328 321 316 313 314 315 315 317 319 319 320 324 327 328 330 335 337 337 337 336 336 336 336 334 334 332 327 319 312 309 308 308 308 308 308 308 308 308 308 308 315 328 331 330 331 332 334 333 330 323 315 314 313
315 316 317 319 319 319 319 317 317 317 319 321 320 322 325 324 326 326 327 327 325 326 325 328 328 328 344 349 347 349 348 349 351 351 352 353 352 350 349 348 346 344 338 332 328 322 316 313 313 315 315 317 320 320 322 325 327 327 330 336 337 337 337 336 336 335 335 334 331 326 319 312 308 309 309 309 309 308 308 308 309 308 309 309 315 323 325 325 327 329 330 328 323 316 313 313 312
318 319 319 318 319 319 317 315 316 317 320 323 322 323 325 325 326 326 326 327 325 326 324 327 330 329 343 349 349 348 347 347 350 352 353 352 352 351 349 347 346 345 342 335 328 323 316 313 314 315 316 318 320 320 322 325 327 328 332 336 337 337 336 335 335 334 333 331 327 319 312 309 309 309 309 309 309 309 309 309 309 309 310 312 314 318 319 321 324 324 323 321 317 314 314 314 313
319 319 319 319 319 319 317 315 317 318 321 322 324 324 324 325 326 326 325 325 325 326 324 329 331 332 342 348 349 348 348 348 350 353 352 352 351 350 348 346 346 346 345 338 329 324 317 313 314 315 316 318 320 320 322 326 327 329 333 336 336 337 336 334 333 333 332 328 322 313 309 309 309 310 310 310 309 309 309 309 310 310 311 313 314 315 317 318 319 319 318 316 314 314 314 314 313
319 318 318 319 318 318 317 316 318 319 321 321 323 323 324 325 325 325 325 325 325 325 323 327 327 332 344 348 349 348 351 350 351 353 351 352 350 348 347 347 347 345 346 340 329 324 318 313 314 315 315 318 320 320 322 325 327 330 334 335 336 337 336 334 333 333 331 327 320 311 309 309 310 310 310 310 310 310 310 311 311 312 312 313 314 315 315 315 316 316 314 314 315 315 315 315 314
318 318 317 318 317 316 315 316 318 320 321 322 323 323 324 324 325 325 324 325 324 325 323 326 324 334 346 349 348 348 353 351 351 352 351 351 349 347 347 347 347 345 346 341 329 324 318 312 314 315 315 318 320 321 322 325 328 331 333 335 336 337 336 334 333 333 330 326 318 311 309 309 310 310 311 311 311 312 311 312 312 313 313 314 314 313 313 313 313 313 313 315 316 315 315 316 315
318 318 318 317 315 313 313 315 318 320 322 322 323 323 325 323 325 325 324 324 323 324 323 325 323 335 348 349 349 349 353 352 351 350 349 349 348 348 347 346 346 345 345 338 328 324 317 313 314 314 315 317 320 321 322 325 329 332 334 336 336 337 336 334 332 332 330 325 318 311 309 309 310 310 311 311 311 312 312 312 313 313 314 314 314 313 313 313 313 313 314 315 316 315 315 315 315
318 319 318 315 314 314 314 316 317 321 321 321 322 323 324 324 325 324 324 323 323 324 322 324 322 335 349 350 350 350 353 351 350 349 349 349 348 348 346 346 345 345 343 333 327 324 317 314 313 314 315 316 320 321 323 325 330 334 335 336 336 336 336 335 332 331 329 324 318 312 309 309 310 310 311 312 312 312 312 312 313 313 314 314 314 314 314 314 313 314 315 316 316 315 315 316 315
318 319 318 316 315 316 316 316 318 320 321 321 322 323 324 324 325 324 324 322 322 322 322 323 322 334 346 350 351 351 354 351 350 349 349 349 348 347 346 347 345 345 342 332 328 325 319 315 313 314 314 315 318 320 323 325 331 335 336 336 336 335 335 334 332 330 329 324 319 313 311 310 309 310 310 311 312 312 312 312 313 313 313 313 314 315 315 315 315 315 315 316 316 315 315 316 316
318 319 318 317 317 318 317 316 318 318 319 321 323 323 324 324 324 324 323 322 321 321 322 321 325 340 347 351 351 351 354 351 349 348 348 348 347 346 346 346 344 344 340 331 328 326 321 318 314 313 314 315 316 319 322 325 329 333 335 336 336 335 334 334 333 330 328 325 321 317 314 313 311 310 311 311 311 312 312 312 312 313 313 313 313 314 315 316 317 316 317 317 317 316 316 317 317
317 319 319 318 318 317 318 317 318 317 318 322 323 323 323 323 322 322 321 320 321 321 322 321 325 340 349 351 350 352 354 351 350 348 349 348 346 347 346 345 343 341 339 335 332 329 324 320 316 313 314 315 315 317 320 323 327 330 333 335 335 335 334 334 332 329 328 327 323 319 317 316 315 313 311 311 311 311 311 312 312 312 312 312 312 313 314 315 317 317 318 319 319 319 319 319 320
317 318 318 317 316 316 318 319 319 317 319 322 322 322 322 322 321 321 321 321 321 321 321 322 321 327 341 347 348 352 352 351 350 348 349 348 347 347 345 344 342 341 340 338 338 335 328 322 319 315 313 314 315 316 317 320 323 327 331 333 335 334 334 333 331 330 329 326 323 322 322 324 325 324 319 315 313 313 312 312 312 312 312 312 312 312 312 313 314 315 316 318 318 319 319 320 321
317 318 317 316 315 316 318 319 320 318 320 322 322 323 321 322 322 321 321 321 321 321 322 322 322 322 334 344 349 352 352 351 350 349 349 347 347 346 345 344 342 342 340 339 340 339 331 325 323 318 314 314 315 315 316 318 321 325 330 333 334 334 333 332 330 330 326 326 330 332 334 335 335 334 330 322 318 316 314 314 313 313 313 313 313 312 312 312 312 312 313 314 315 315 316 317 317
318 318 316 315 316 317 318 319 320 320 322 322 322 322 321 321 321 322 323 323 322 323 324 324 331 338 342 348 352 352 351 350 350 349 348 347 347 346 345 343 343 342 340 341 341 340 336 331 327 322 320 317 315 316 315 317 319 323 328 332 333 333 331 330 330 327 325 330 337 339 340 339 336 336 332 322 317 316 316 316 316 315 314 314 313 313 313 313 313 313 313 312 313 312 313 313 313
319 318 316 315 317 318 320 320 321 321 321 322 323 322 322 321 321 323 325 329 327 327 326 325 339 349 350 352 353 352 351 350 350 349 348 347 346 345 345 344 344 343 342 343 342 342 340 338 335 329 329 325 317 317 316 316 318 322 328 330 331 331 330 331 331 331 331 332 337 340 339 337 337 337 328 318 317 318 320 322 323 324 323 322 321 320 320 319 318 318 318 318 316 315 315 314 313
319 318 317 317 318 319 320 321 321 321 321 322 323 321 321 321 321 323 325 330 329 330 329 326 344 353 353 353 352 352 351 350 350 350 349 347 346 346 345 345 345 343 343 344 343 343 341 342 340 336 335 330 321 321 321 317 317 323 326 327 329 328 331 334 334 336 337 333 336 338 337 336 337 335 323 321 327 326 330 331 331 333 332 332 331 331 330 329 327 325 327 326 325 324 323 322 320
320 318 317 319 319 318 319 321 320 321 322 321 322 321 321 321 321 322 323 329 328 330 330 328 347 354 353 353 352 351 351 350 350 350 349 348 347 346 345 345 346 344 345 344 343 343 343 342 341 339 337 332 329 329 325 319 322 327 326 327 328 328 334 338 336 337 338 336 337 335 337 337 334 332 325 328 335 334 336 336 335 337 336 336 336 336 335 334 334 333 334 333 333 332 331 330 330
320 319 319 319 318 319 319 321 321 321 321 321 321 320 321 321 321 322 322 327 326 329 331 329 345 353 352 352 352 352 351 350 350 349 349 348 347 347 347 346 346 345 345 345 345 344 344 342 341 341 336 334 335 331 325 324 331 335 332 332 331 332 336 338 336 337 337 336 335 334 336 333 330 334 334 335 337 337 338 338 338 338 337 337 337 337 337 335 336 336 336 335 336 336 334 334 334
319 320 320 319 319 319 319 321 321 321 321 321 321 319 320 320 320 322 322 324 323 326 329 329 344 351 350 350 351 351 351 350 350 351 349 349 348 348 348 346 346 346 345 346 345 345 345 343 342 340 335 335 335 332 331 331 334 336 336 335 335 335 337 337 335 336 337 334 332 332 329 328 331 336 337 337 337 337 339 339 339 338 337 337 336 337 337 337 337 337 338 337 337 337 336 335 335
318 318 320 319 319 319 319 320 321 321 321 320 320 319 320 319 319 321 321 322 322 323 328 331 342 349 350 350 351 351 351 351 350 350 348 348 348 349 348 347 346 346 346 346 345 346 345 344 342 338 336 336 335 336 336 334 334 336 336 336 336 336 336 336 335 337 336 329 326 326 324 331 337 338 338 337 337 338 338 338 338 338 338 338 337 337 337 337 337 337 338 337 337 337 336 336 336
318 318 319 320 320 319 319 319 320 320 320 320 320 319 319 320 320 321 321 322 322 322 328 332 339 347 350 351 351 351 351 351 349 346 346 347 347 348 348 347 346 345 346 346 345 345 344 344 342 338 337 336 336 336 335 335 337 337 337 336 336 337 336 336 336 337 332 323 321 324 328 337 339 338 338 337 338 339 338 337 337 337 338 338 337 337 337 337 337 337 336 336 336 336 335 335 336
317 318 319 319 319 320 319 319 320 320 320 320 319 319 319 320 319 321 321 322 323 322 329 334 339 346 350 351 351 352 351 350 346 343 345 347 346 347 347 346 346 345 345 346 345 345 344 342 341 339 336 336 336 336 335 335 337 338 337 336 337 336 335 337 337 332 326 326 330 333 337 339 338 337 337 337 339 339 338 337 337 336 336 336 337 337 336 336 336 336 335 335 335 335 336 336 336
318 318 318 319 319 320 320 320 320 319 320 320 319 319 318 319 319 319 320 321 322 323 330 336 339 344 348 350 351 351 350 349 345 343 346 347 345 346 347 346 345 345 345 345 345 344 343 341 341 338 334 336 336 335 335 335 338 337 334 336 337 334 335 336 333 327 328 335 338 339 339 338 338 338 337 338 338 337 337 337 336 335 335 335 334 333 333 332 333 332 332 332 332 333 333 334 335
317 318 318 318 318 319 319 319 320 319 320 320 319 318 319 319 318 319 320 321 321 323 331 337 340 342 345 349 351 350 349 348 345 344 346 347 346 346 346 346 345 346 345 345 344 344 342 341 339 336 335 337 335 335 337 336 337 335 333 336 334 334 337 332 327 328 334 339 339 338 338 337 337 337 337 338 336 336 336 335 334 334 333 333 331 330 330 330 331 331 330 329 329 330 331 332 333
317 317 317 318 318 318 318 319 319 320 319 319 320 317 317 318 318 320 320 321 323 325 331 335 339 342 341 345 348 350 349 348 346 345 347 347 347 347 346 346 346 346 345 344 344 343 341 340 337 335 336 336 335 337 337 335 336 335 334 335 332 334 333 327 329 335 337 338 338 337 337 337 337 337 336 335 334 333 333 333 333 332 332 331 330 330 330 331 332 332 332 331 332 333 333 335 336
317 317 317 317 317 317 318 319 319 320 319 320 319 315 315 318 318 322 321 323 330 330 332 335 339 341 339 341 346 349 348 346 346 346 347 346 346 348 347 346 347 346 345 344 343 342 341 339 336 336 336 334 336 337 334 334 337 336 335 334 332 330 328 331 337 338 337 338 337 336 337 338 336 335 334 332 331 330 332 333 332 332 331 330 330 330 331 332 333 334 334 333 333 334 334 334 336
316 316 316 317 314 315 318 319 318 318 318 320 319 314 316 318 318 329 332 331 335 333 334 337 339 338 337 341 346 348 348 345 345 347 346 345 345 346 347 346 346 345 343 343 342 340 339 336 335 336 334 334 337 336 334 335 337 337 336 334 330 329 333 337 338 337 338 338 338 337 336 335 333 332 331 330 330 330 333 334 334 333 332 331 329 328 329 330 332 334 334 333 332 332 331 330 332
316 314 314 315 313 315 318 319 318 318 319 319 319 314 316 321 326 335 338 335 336 335 335 338 339 337 337 342 347 348 347 345 345 345 344 344 345 346 346 346 345 343 343 342 340 338 337 335 336 335 333 335 336 334 333 334 335 335 334 333 332 334 337 337 337 338 339 339 340 339 334 332 331 331 331 332 333 333 335 335 335 334 333 331 329 327 327 327 329 332 332 330 329 329 329 329 330
316 314 312 314 313 314 316 318 319 318 319 318 319 315 316 329 336 339 339 338 338 338 339 340 339 340 341 343 346 345 343 342 342 341 341 342 342 343 344 344 343 342 342 341 338 338 337 336 336 335 334 336 334 332 332 330 331 330 329 333 337 337 336 335 337 338 337 337 340 339 334 331 331 332 332 334 334 334 335 336 336 335 333 331 328 328 327 326 329 331 329 327 327 328 328 328 329
314 314 313 314 315 314 314 317 319 319 318 318 319 316 320 334 339 339 341 341 340 339 341 341 339 341 341 340 341 340 339 339 339 339 339 339 340 341 341 341 340 340 341 339 337 337 336 336 337 334 333 333 331 330 330 328 329 330 332 336 338 337 334 334 337 338 335 336 339 338 334 331 332 333 334 335 334 334 335 336 336 334 332 330 328 328 329 331 333 332 329 326 327 328 328 328 329
314 314 314 314 314 315 314 316 318 319 318 318 318 316 326 338 339 340 341 341 341 339 341 342 340 336 335 336 339 338 337 338 339 339 339 340 341 340 339 339 338 339 339 338 337 337 337 336 334 331 330 329 327 328 328 330 333 335 336 336 336 335 333 332 335 334 332 335 339 338 334 333 334 334 334 334 334 333 334 335 334 332 332 331 330 329 329 332 332 330 329 327 327 328 329 330 330
315 315 315 314 313 314 316 317 319 320 318 318 318 316 326 339 340 340 341 342 340 339 342 344 338 334 335 337 339 338 336 337 338 339 339 340 340 339 337 337 338 338 337 337 337 337 336 335 330 328 330 330 329 329 330 334 336 336 337 336 335 334 332 333 335 332 330 336 338 336 334 335 336 335 336 335 333 332 332 333 332 331 331 331 330 328 328 328 328 329 329 329 328 328 328 329 330
317 316 316 315 313 314 317 319 319 320 318 317 319 317 322 335 338 338 341 342 340 338 343 344 336 332 335 337 338 337 337 336 336 339 339 338 339 338 336 337 338 338 337 336 336 335 335 334 330 328 332 332 332 332 332 335 336 336 335 334 334 333 332 333 333 331 332 336 338 335 335 337 337 336 335 333 331 330 329 329 328 329 329 329 328 327 328 329 329 329 329 329 329 328 327 329 331
316 316 316 315 314 315 317 319 319 320 319 317 319 317 318 330 334 337 341 341 340 338 340 342 335 333 335 336 336 336 337 335 335 339 337 336 338 339 337 337 339 338 338 337 336 335 334 333 332 332 334 335 334 333 333 334 336 336 334 333 336 335 334 334 333 332 334 337 337 336 336 336 336 334 332 329 328 328 326 326 327 328 328 327 327 328 329 329 330 330 329 329 328 328 328 331 332
316 316 315 315 315 316 317 319 320 320 319 317 319 318 317 326 332 335 339 340 340 338 338 340 333 333 335 333 332 333 336 336 335 338 337 337 338 339 337 336 337 337 337 337 336 335 334 333 334 335 336 336 335 335 334 335 335 335 334 335 336 334 333 333 331 332 336 337 336 335 335 334 333 332 330 330 330 327 325 325 325 326 327 327 328 329 329 329 330 329 329 329 328 329 330 331 332
316 315 314 314 316 316 315 317 321 319 318 318 318 318 317 325 334 335 336 339 341 339 340 340 333 333 334 332 332 332 334 335 335 336 337 338 337 336 336 335 336 337 337 336 336 334 334 334 335 336 337 336 336 336 336 336 334 334 335 333 332 332 330 330 331 334 337 336 335 334 333 332 332 331 329 329 329 325 323 324 324 325 327 327 328 329 328 328 329 328 329 329 329 330 331 331 332
315 315 315 315 317 316 315 318 320 318 318 318 318 317 315 322 334 335 335 336 339 337 339 341 335 334 335 334 335 335 336 336 336 338 339 338 335 335 335 334 335 336 336 336 335 334 334 335 336 337 338 337 336 336 336 336 333 333 334 330 329 331 330 331 335 336 335 334 335 334 331 330 330 329 326 325 323 322 323 324 325 327 328 328 328 328 328 329 329 329 329 329 330 331 331 331 331
314 316 317 317 318 318 317 319 318 316 316 317 317 313 313 322 332 335 335 335 339 338 338 341 336 334 336 336 336 337 338 336 336 338 339 338 334 335 336 335 335 336 336 336 335 336 336 336 336 337 337 337 336 335 335 335 332 331 331 330 329 330 331 334 337 337 336 335 335 334 331 328 325 324 324 323 322 322 324 326 327 328 328 328 328 328 329 329 328 328 328 328 330 331 331 331 331
313 315 317 319 319 318 318 318 316 313 314 317 318 313 312 323 332 337 338 336 337 337 337 340 337 334 336 337 338 339 338 337 337 337 339 340 337 338 338 337 337 337 337 337 336 337 338 338 337 337 337 336 335 335 334 334 333 332 330 330 330 329 332 336 337 337 338 336 334 334 331 327 323 325 325 324 324 325 325 327 328 328 327 328 329 329 329 327 327 327 327 328 330 331 331 331 331
313 317 318 319 319 318 318 317 316 315 316 317 318 316 312 317 331 338 337 336 337 338 337 336 335 334 333 335 338 340 339 338 338 338 339 340 339 339 339 338 338 338 336 337 337 338 338 338 337 337 336 335 334 334 334 334 334 334 332 332 332 329 330 335 336 336 336 334 334 334 330 326 324 326 325 324 326 328 327 328 329 328 328 328 328 327 326 325 326 326 326 328 329 330 331 331 331
315 318 318 319 319 318 318 317 316 316 316 314 314 317 312 313 330 338 334 335 336 338 338 335 335 335 333 333 336 339 340 338 338 339 339 339 339 340 339 338 338 338 337 337 338 338 337 337 337 336 335 335 333 332 333 333 333 333 332 332 332 329 329 334 335 335 334 333 333 331 329 326 326 326 326 326 327 328 327 327 328 327 327 327 325 324 324 324 324 325 327 328 329 330 330 330 330
316 318 318 318 318 318 318 317 316 315 315 314 313 315 312 311 329 338 335 334 334 336 336 334 335 336 335 333 333 335 339 340 339 340 340 338 339 340 338 337 338 338 339 338 338 338 337 337 336 334 334 334 333 332 332 333 333 333 331 332 331 328 331 334 335 334 334 333 331 330 329 328 328 327 327 327 326 327 326 326 326 326 326 324 323 322 323 323 325 326 327 328 328 329 329 329 330
316 317 317 317 317 318 318 317 316 315 314 314 313 315 314 311 321 335 337 335 334 335 335 334 333 334 334 332 331 332 335 338 339 339 339 338 338 340 338 337 338 338 339 339 338 338 337 337 335 333 334 334 334 334 332 332 333 333 332 332 330 329 333 335 334 334 333 332 330 329 329 328 327 327 327 327 326 326 326 325 325 325 324 323 322 322 323 324 326 328 328 328 328 328 328 329 329
316 317 316 315 315 315 316 316 316 315 313 314 314 315 315 312 314 325 335 336 334 333 333 335 333 334 335 333 333 334 333 336 338 338 339 339 339 339 338 337 338 338 339 339 338 338 337 336 335 333 334 334 335 334 332 332 333 334 334 333 331 332 334 334 334 333 331 330 329 328 328 327 326 326 326 326 325 325 324 324 324 324 322 322 323 323 323 324 326 328 328 327 327 328 328 328 327
315 315 314 313 313 314 315 314 314 314 313 313 316 315 313 314 316 321 329 333 333 333 333 335 336 337 338 337 337 337 335 336 337 337 339 339 337 337 338 338 338 338 339 339 338 337 337 336 335 334 334 334 334 333 333 333 334 335 334 334 333 333 334 333 333 331 330 329 329 328 329 327 327 327 326 325 324 323 323 322 322 323 322 323 323 322 323 324 326 327 326 325 325 326 326 325 325
314 313 313 312 313 315 316 314 314 314 313 313 316 315 313 315 318 321 324 327 330 330 332 335 337 339 338 338 339 339 337 336 336 338 338 338 337 336 339 339 337 338 338 338 337 336 336 336 335 334 333 332 332 333 333 334 334 334 334 333 332 332 333 332 331 330 329 329 328 327 327 326 326 325 324 323 323 323 323 322 322 323 323 323 322 322 323 324 325 325 324 322 322 323 323 321 321
314 314 314 313 313 315 315 313 313 313 313 313 315 315 314 314 319 322 322 324 328 328 330 335 337 337 337 337 338 338 337 336 336 338 338 338 338 338 339 339 338 338 338 337 336 335 335 335 334 333 331 331 332 333 333 334 334 334 333 331 330 331 331 331 330 329 328 327 326 325 325 325 324 324 323 323 323 323 322 323 323 323 322 322 322 321 321 322 322 321 320 319 320 321 320 318 318
314 315 315 314 315 315 314 313 314 315 314 313 314 315 316 318 321 323 322 324 327 327 329 335 335 335 336 338 339 339 339 338 338 340 339 339 340 339 340 339 338 338 337 336 335 333 333 334 334 333 331 332 332 332 333 334 334 333 331 330 330 330 330 329 328 327 326 325 324 323 323 323 323 323 323 323 323 322 322 323 322 322 321 321 321 321 320 319 318 318 319 319 319 319 318 317 318
314 313 313 315 317 317 314 314 316 317 316 315 314 314 316 318 321 323 324 323 325 326 327 332 334 335 335 337 340 341 341 340 340 340 340 340 340 340 340 339 338 337 336 336 334 331 330 332 333 333 332 332 332 333 333 333 333 331 330 329 330 330 328 327 326 324 323 323 323 322 322 322 322 322 322 322 322 322 322 322 322 321 321 320 320 319 319 318 316 317 318 317 317 317 317 317 317
313 312 313 316 317 317 316 315 315 315 316 315 314 314 314 314 318 323 324 324 325 325 326 330 333 335 336 338 340 340 340 340 340 340 340 340 340 339 339 338 338 336 335 335 333 330 331 331 332 332 332 333 333 334 333 333 332 330 329 329 329 328 326 325 323 322 322 322 321 322 322 322 322 322 322 322 322 322 322 322 321 321 320 319 318 318 319 319 317 316 316 316 317 317 317 317 316
315 313 315 315 314 314 315 315 315 315 316 315 314 313 313 313 316 321 323 324 327 327 327 328 331 333 336 338 340 339 339 340 340 340 340 340 339 338 338 338 337 336 334 333 332 330 331 333 333 333 333 333 333 333 332 331 331 328 327 327 327 326 324 323 322 321 321 321 321 321 321 322 322 321 321 321 321 322 321 321 321 321 320 318 317 317 319 318 316 315 315 316 316 317 316 316 316
315 315 315 315 314 313 314 315 315 315 315 316 315 313 314 315 318 321 322 324 327 329 331 329 330 333 335 338 339 339 339 339 340 340 340 340 339 337 337 336 336 336 335 334 333 332 332 333 333 333 333 333 332 331 330 330 329 327 326 325 325 324 323 322 322 321 321 321 320 321 321 321 321 321 321 321 321 321 320 320 320 320 319 318 317 316 317 317 316 315 316 316 316 317 316 315 315
314 313 313 313 314 314 314 315 314 314 314 315 316 315 314 317 321 322 321 325 326 329 333 332 332 335 336 338 339 339 339 338 339 340 340 340 338 337 337 336 335 336 336 336 335 334 334 334 334 333 333 332 331 331 330 329 327 325 325 324 323 323 322 321 321 320 320 320 320 321 321 321 320 320 321 321 321 320 319 319 319 319 319 318 317 316 316 316 316 316 316 316 316 316 316 315 314
314 314 313 313 314 313 314 314 313 314 314 314 316 315 315 319 323 322 323 326 325 325 329 332 334 336 337 338 337 338 339 337 338 339 339 339 338 337 336 335 334 335 336 336 335 335 334 334 333 332 332 331 330 329 329 328 326 324 323 322 322 322 321 320 320 320 320 320 321 321 320 320 320 320 320 320 319 319 319 319 318 318 318 317 317 317 316 316 317 317 317 316 316 316 315 315 314
Wind_Speed
15 15 14 13 14 14 16 14 9 6 5 8 9 9 10 12 12 14 12 6 8 2 7 3 5 8 6 7 11 20 14 9 6 3 5 11 16 16 21 21 20 18 19 21 18 17 14 13 12 11 11 13 15 15 15 17 19 20 19 19 19 18 16 15 14 14 13 12 11 10 10 9 8 8 7 7 6 5 5 4 4 4 6 6 7 8 8 8 9 9 8 9 9 9 8 7 5
15 15 13 12 13 11 12 10 7 6 7 9 8 9 10 11 11 13 14 9 7 4 8 4 4 6 2 2 11 19 15 15 14 15 16 19 20 18 21 21 20 17 19 20 17 17 15 14 13 12 12 13 16 16 16 18 20 21 21 20 19 17 16 15 14 13 12 11 10 9 8 7 7 6 5 4 4 4 4 3 4 4 6 6 7 8 8 7 7 7 7 7 6 7 6 5 4
15 14 11 10 13 13 11 9 7 7 8 9 8 10 11 13 11 14 17 6 6 12 8 2 3 4 4 2 11 13 11 16 18 22 20 19 22 20 18 19 19 16 19 20 17 16 15 15 13 13 13 14 16 17 17 18 20 21 21 20 18 17 16 14 13 12 11 10 9 8 7 6 5 5 4 3 3 4 4 4 5 6 6 7 9 10 8 6 5 5 5 5 5 5 5 5 5
14 12 8 9 12 11 10 6 7 8 9 8 8 10 13 14 13 15 9 12 16 13 5 6 5 4 6 5 15 14 12 14 15 17 17 15 19 21 19 18 18 16 19 20 17 17 15 14 14 14 14 15 16 18 18 19 20 20 20 19 17 17 16 14 13 11 10 9 8 7 6 5 5 5 5 4 4 5 5 5 5 6 7 8 10 10 8 6 5 5 5 4 4 5 5 5 5
12 9 7 9 9 7 7 5 7 9 8 8 8 10 14 14 16 14 4 16 12 9 5 5 8 7 10 12 11 11 12 14 14 14 17 16 20 24 21 18 15 16 20 20 18 17 16 14 14 14 15 16 17 19 19 19 19 19 19 18 17 17 16 14 12 11 9 8 7 6 5 6 6 6 6 6 5 5 5 6 5 6 7 9 10 10 8 7 6 5 4 3 4 5 5 5 6
9 8 9 12 11 8 7 7 8 10 10 11 10 11 16 15 17 17 6 7 3 7 7 3 8 8 11 16 12 13 12 12 14 15 21 19 21 24 21 16 13 16 20 20 19 17 16 14 14 14 15 16 17 19 19 19 19 18 18 17 17 16 15 14 12 9 8 8 7 6 6 7 7 7 7 7 7 7 7 7 7 7 8 10 10 9 8 7 6 5 4 3 3 4 5 6 6
8 9 10 12 11 8 8 9 10 11 11 14 13 13 17 17 20 21 14 10 3 4 6 2 6 6 6 13 15 14 10 11 15 18 23 21 20 21 18 15 18 21 19 18 19 17 17 15 14 15 15 16 17 19 19 18 18 17 17 17 17 15 14 13 11 9 8 8 7 6 6 7 8 8 8 9 9 9 8 8 9 8 9 10 10 9 8 7 6 5 4 4 4 5 5 6 7
10 12 11 9 7 7 8 10 12 11 12 16 17 18 20 21 23 20 13 11 4 3 7 3 5 3 6 12 11 9 9 11 17 20 23 24 20 19 18 20 24 25 18 17 20 18 17 16 15 16 15 16 17 18 18 18 17 17 17 17 16 15 13 12 10 9 9 8 7 7 7 8 8 8 9 10 10 10 10 9 10 9 9 10 10 10 9 8 7 7 6 5 5 5 5 6 7
11 12 11 8 7 7 9 10 12 13 14 17 18 23 25 27 27 22 18 16 4 3 14 11 9 5 11 16 15 12 12 13 18 19 20 23 21 21 22 23 25 25 19 17 19 19 18 17 16 16 16 17 18 18 18 17 16 16 17 17 16 14 13 11 10 9 8 7 7 7 8 8 8 8 9 10 10 11 11 10 10 10 10 9 10 10 9 9 9 8 7 7 5 5 6 6 6
12 13 10 7 7 9 11 10 11 12 15 17 19 24 26 28 26 24 21 11 3 5 14 13 15 4 17 16 15 13 16 18 19 19 19 23 24 23 23 23 23 23 19 17 20 21 19 18 17 17 17 18 19 19 19 17 16 16 17 16 15 14 12 11 9 8 8 7 7 7 7 8 8 8 9 9 9 10 10 10 10 10 9 9 9 10 9 9 9 9 8 7 5 5 5 6 6
11 13 11 7 8 10 10 10 12 12 15 16 18 23 25 28 25 26 20 1 2 8 12 11 11 8 19 14 14 14 17 19 18 22 22 25 26 22 22 23 21 18 17 20 23 21 21 20 18 18 18 18 19 19 19 17 16 16 17 16 15 13 11 10 9 8 7 7 6 6 7 7 7 7 8 8 8 9 9 9 9 9 9 9 9 9 9 8 8 8 7 6 5 5 5 5 5
10 9 10 8 8 9 10 11 12 13 16 16 17 21 25 28 25 21 12 1 2 9 13 14 10 8 14 13 15 16 18 17 16 23 27 28 26 23 23 22 20 17 16 22 23 21 21 20 19 19 18 18 19 19 18 17 16 16 17 16 14 13 11 10 9 8 7 6 6 6 6 6 6 6 7 7 7 7 7 7 7 7 7 8 9 8 8 7 7 6 6 5 4 4 4 4 4
12 8 8 8 9 9 11 11 12 13 13 13 15 20 23 23 20 13 5 2 5 9 13 16 10 6 10 14 18 21 20 18 19 26 28 26 26 26 22 20 21 18 16 21 23 21 21 20 20 19 18 19 18 19 18 17 17 16 16 16 14 13 11 10 9 7 6 6 5 5 5 5 5 5 5 6 5 6 5 6 6 5 5 6 8 8 8 7 6 5 5 4 3 3 3 3 3
14 12 9 7 9 10 12 11 12 12 10 12 15 22 24 15 6 2 3 4 7 9 12 15 7 12 15 15 17 24 22 20 23 27 28 25 27 28 22 20 19 16 16 22 23 21 21 21 20 20 20 19 18 18 18 17 17 17 16 15 14 12 11 10 8 7 6 6 6 5 5 4 4 4 4 4 4 4 4 4 4 4 4 3 4 6 7 7 6 5 5 4 3 3 3 3 3
16 15 9 7 9 10 11 10 13 12 10 12 10 11 12 3 3 2 2 5 8 9 10 13 10 11 17 18 16 27 27 23 26 27 28 26 27 27 23 20 16 15 18 21 21 20 21 20 20 20 20 20 20 19 19 18 17 17 16 15 14 12 11 10 8 7 7 6 6 5 5 5 4 3 3 3 2 2 2 3 3 3 3 3 2 2 3 4 6 6 5 5 4 4 4 4 4
18 15 7 8 11 10 10 11 13 12 11 10 4 4 4 3 5 4 3 5 9 11 9 10 12 8 17 25 25 32 31 26 28 28 28 27 27 27 25 21 19 20 20 19 19 18 19 20 19 19 19 20 21 21 20 19 18 17 16 16 14 12 11 9 7 6 6 6 7 8 7 6 4 4 3 2 2 2 2 2 2 3 3 3 2 2 1 1 1 3 4 4 4 4 5 5 5
17 13 8 9 11 11 11 11 11 10 11 10 3 2 3 6 7 6 4 5 9 11 11 11 13 11 11 24 33 36 32 30 30 30 30 29 29 28 26 24 23 23 20 20 21 17 15 17 19 19 18 19 20 21 21 20 19 18 17 16 14 13 10 8 7 6 7 8 8 9 7 5 4 4 1 1 3 3 3 3 3 3 3 2 2 2 2 2 2 3 4 4 5 6 6 7 8
14 9 9 10 10 12 11 12 13 12 12 9 7 5 6 8 5 6 7 7 10 10 12 11 2 10 19 30 37 36 33 34 32 32 33 31 31 29 27 26 25 25 23 23 23 19 13 15 17 17 18 17 18 20 21 21 20 19 17 16 14 12 10 8 8 8 9 8 8 7 5 5 6 6 3 2 6 5 4 4 4 4 3 2 2 2 3 3 3 4 4 6 7 7 8 9 9
13 7 8 11 11 12 14 14 16 16 15 13 8 4 1 5 6 4 4 6 11 9 12 10 16 27 30 36 36 35 36 36 34 33 33 31 31 30 28 27 26 26 25 24 25 19 14 17 14 14 18 17 16 17 20 21 20 19 17 16 14 12 10 9 9 9 8 6 5 4 3 6 4 3 3 3 6 6 5 5 5 5 4 4 3 4 4 4 4 5 6 8 8 9 10 10 11
15 11 8 10 13 14 18 18 20 22 16 13 4 6 2 7 7 6 5 6 10 9 11 11 20 30 31 35 34 34 35 35 33 32 33 31 30 29 28 28 27 27 26 26 26 20 19 20 15 16 18 16 15 15 17 21 20 18 17 15 13 12 12 10 8 8 7 5 3 3 3 3 4 7 1 4 3 2 4 5 5 5 4 4 4 5 5 4 4 5 7 9 9 10 11 12 11
13 14 10 11 14 14 19 22 24 22 11 9 8 1 5 7 9 9 9 7 10 10 12 13 23 34 31 34 33 32 33 34 32 31 33 31 30 28 27 27 26 26 26 25 25 22 22 22 19 19 16 13 14 13 15 19 17 14 14 15 14 14 13 11 9 7 6 5 2 3 2 5 6 4 1 3 3 3 5 5 5 6 5 5 5 6 6 4 4 5 6 7 7 9 10 11 11
11 14 16 17 17 12 18 24 21 15 10 9 10 10 5 4 11 10 9 8 9 10 11 13 26 37 33 35 33 31 32 33 32 32 33 32 31 30 29 28 27 27 26 24 23 22 22 21 22 20 15 16 14 12 14 17 16 13 12 12 13 13 12 10 9 6 6 7 6 8 6 9 7 4 2 1 2 2 4 6 6 8 8 7 7 7 8 7 7 8 8 8 7 8 9 9 12
11 12 18 20 21 17 18 19 11 8 12 11 8 13 10 8 13 8 9 12 13 14 11 9 26 37 33 35 32 31 32 32 34 33 33 33 33 32 30 30 29 28 26 23 23 22 22 22 20 18 17 19 13 9 12 14 16 15 13 11 10 9 9 8 7 6 9 10 8 10 9 6 7 5 2 0 0 2 3 6 7 8 8 8 8 8 8 8 9 11 11 11 11 10 10 10 13
15 11 15 18 21 22 23 19 8 5 10 12 10 13 13 14 14 9 12 14 16 17 12 9 23 36 32 34 32 30 31 33 35 33 32 31 31 31 29 30 29 28 26 24 24 22 22 21 18 18 20 18 14 12 14 14 13 13 14 13 10 9 9 8 7 9 12 10 7 8 8 5 3 3 2 0 1 2 3 5 6 6 7 8 9 8 9 9 9 11 12 12 13 14 14 14 15
17 14 15 16 19 22 23 22 13 6 8 12 13 15 15 16 13 10 15 14 15 16 11 11 19 35 29 31 30 28 30 31 30 27 27 26 26 27 27 28 28 27 27 26 25 23 22 20 17 19 21 18 17 16 16 16 15 14 15 14 12 13 12 11 11 13 11 6 6 7 7 6 5 4 2 2 2 3 4 5 5 5 5 6 7 8 8 9 8 10 11 11 12 13 14 14 14
15 17 18 17 19 19 19 23 20 13 12 12 12 15 16 17 14 12 18 16 12 13 12 10 16 31 25 26 27 28 29 27 24 22 24 26 25 26 26 27 28 27 26 26 25 22 20 19 17 20 22 20 18 17 15 16 17 18 17 16 14 15 15 14 14 13 8 5 6 6 5 7 6 3 2 2 2 3 4 4 5 4 5 5 6 7 7 8 9 9 11 11 11 11 12 12 13
15 19 21 20 21 20 18 19 20 16 15 15 13 14 15 18 15 11 18 19 15 15 14 11 13 25 20 21 24 25 26 24 24 24 25 26 27 28 27 27 28 27 26 26 23 21 21 19 17 19 21 19 17 16 15 15 17 17 17 16 13 13 14 14 13 10 7 5 4 4 5 6 5 4 2 2 2 2 3 3 4 5 5 6 7 8 9 10 10 10 10 11 12 12 13 13 14
18 20 18 19 21 22 20 16 16 15 13 17 18 15 16 18 16 13 18 20 21 21 16 16 14 18 17 19 21 21 23 26 28 29 29 29 31 30 28 27 28 27 26 26 22 21 21 18 16 17 19 17 14 15 14 14 14 15 16 14 12 13 13 13 12 8 7 6 4 4 4 4 4 4 2 2 3 3 3 3 4 5 6 7 8 9 9 9 9 9 9 10 12 12 13 13 14
21 19 12 13 17 19 22 18 17 15 12 17 17 14 15 16 16 19 24 22 20 19 17 19 18 19 18 19 20 20 23 28 30 32 33 32 32 30 28 28 27 25 24 24 22 21 21 18 17 18 17 17 15 15 15 13 13 14 14 12 13 14 12 11 10 7 7 6 6 5 4 4 3 3 3 3 4 4 4 4 4 5 6 7 9 9 8 8 8 9 9 11 11 12 13 14 14
18 15 10 10 12 13 20 20 17 17 14 17 14 10 11 14 18 21 22 18 13 14 16 18 20 21 20 20 20 20 22 27 30 30 31 31 30 29 29 27 24 23 22 22 22 22 20 19 21 18 18 18 16 14 15 13 13 13 11 12 12 11 9 9 8 7 7 6 5 5 4 4 3 3 3 3 4 4 3 4 4 4 6 7 8 8 8 9 9 9 10 11 12 12 14 14 15
12 12 10 9 9 9 16 19 18 16 14 19 16 8 9 13 19 18 15 17 15 14 17 17 19 22 22 22 20 18 22 25 25 24 26 28 27 27 29 27 24 22 23 23 20 19 18 18 20 18 18 19 17 15 14 14 13 12 11 12 11 9 9 8 7 8 8 7 5 5 5 5 4 3 2 2 3 3 2 3 5 5 6 7 8 8 9 10 10 9 10 12 13 13 15 16 17
9 11 10 10 9 9 14 18 20 17 14 20 17 8 9 10 9 18 23 25 21 16 17 17 19 23 24 22 20 21 24 24 23 22 22 24 24 25 28 26 24 24 24 22 19 19 18 18 18 18 17 18 15 13 14 14 14 14 14 12 10 11 10 8 7 7 7 8 7 6 4 4 3 1 1 2 3 3 3 3 5 6 7 7 8 9 10 10 10 10 11 11 13 15 16 17 18
9 10 10 10 11 10 12 15 21 21 16 18 17 10 9 4 6 13 18 20 21 15 13 14 18 21 22 19 17 20 22 20 18 16 14 15 16 19 22 23 23 24 23 20 20 21 19 18 15 15 17 16 13 14 15 15 15 14 13 10 9 9 8 8 7 6 6 7 7 5 3 2 3 1 1 2 2 3 3 4 5 6 7 8 8 9 10 10 10 11 10 10 12 15 16 18 18
9 10 9 11 13 11 11 13 18 23 18 16 18 14 7 8 9 8 9 10 14 12 10 13 16 9 9 11 11 16 16 12 13 12 8 6 9 12 15 17 20 23 21 19 20 20 18 16 13 13 16 14 14 16 15 15 14 12 11 10 9 8 8 7 6 6 6 7 7 4 2 2 2 1 1 2 2 2 2 4 5 6 7 8 9 9 9 9 10 11 11 11 12 14 15 17 18
10 10 9 10 13 13 13 13 14 21 20 16 17 16 8 11 9 7 9 8 11 12 9 13 12 5 11 10 10 15 14 10 14 16 8 8 13 13 14 14 16 19 19 19 20 17 14 14 13 13 14 14 15 15 15 15 13 12 12 11 10 9 8 7 5 6 7 8 6 4 2 2 2 2 3 4 4 3 3 4 6 6 7 8 8 9 8 7 9 11 11 12 12 13 15 17 18
14 13 11 11 12 12 14 15 14 20 18 16 16 16 12 13 12 10 10 11 14 13 12 9 12 16 11 11 12 16 17 11 12 15 8 14 16 15 16 16 17 17 16 20 22 18 15 15 15 15 16 16 15 15 15 15 13 13 12 11 11 9 8 7 6 7 8 7 5 3 3 2 3 4 4 5 5 5 5 5 7 7 7 7 8 9 8 7 9 10 11 13 14 14 15 15 17
16 14 13 14 13 12 14 16 15 19 15 15 17 17 15 15 15 14 14 14 13 12 12 8 20 18 9 9 11 14 16 15 12 14 15 18 18 17 19 19 20 21 21 22 21 18 17 18 18 17 18 17 16 16 16 14 13 13 12 11 11 10 9 9 9 8 7 5 3 3 4 3 4 5 6 6 6 5 5 6 7 6 5 5 7 7 7 7 8 10 11 12 14 15 14 14 17
18 13 12 12 12 13 14 16 16 19 12 13 17 17 17 17 16 16 17 14 12 13 14 11 22 16 10 10 10 11 13 14 17 21 21 19 19 19 19 20 21 22 23 20 18 17 17 18 18 18 19 18 16 16 15 13 12 11 11 11 10 10 9 10 9 7 6 6 6 6 7 6 4 3 4 4 3 3 3 4 4 5 5 5 5 5 6 6 8 10 11 12 13 14 13 13 17
17 12 12 9 11 13 12 18 17 15 9 9 16 15 14 16 18 16 16 14 14 15 14 15 25 21 18 17 15 14 18 19 23 25 24 23 22 21 20 22 22 22 22 20 19 19 20 20 19 17 17 16 16 15 13 12 11 10 11 11 10 10 9 8 6 6 6 6 7 7 6 6 2 1 1 2 3 5 4 4 4 5 5 5 4 4 5 5 7 9 10 12 13 14 13 12 14
14 12 11 8 12 12 10 14 14 11 7 8 12 12 12 11 15 12 12 14 14 15 12 17 25 24 23 24 23 23 25 26 27 27 27 27 27 24 23 25 26 26 23 22 23 23 22 22 20 19 17 16 15 13 12 12 11 10 11 12 10 9 9 7 6 5 5 6 6 4 3 3 2 1 0 1 2 5 4 4 5 4 4 5 5 5 5 6 8 9 10 11 13 15 16 15 15
15 15 12 10 12 15 14 10 11 9 9 10 10 8 10 9 14 12 11 13 12 12 12 16 23 22 23 23 23 24 24 25 27 29 32 32 30 28 27 26 27 28 25 23 24 23 22 22 21 19 17 16 15 13 13 12 10 10 12 13 11 9 7 6 5 4 6 5 3 3 2 2 1 2 1 1 2 3 3 4 5 5 6 6 6 6 7 8 8 9 10 10 11 14 16 17 15
13 16 16 15 11 17 17 9 12 6 8 11 12 9 6 9 16 14 11 11 7 3 6 14 20 20 21 22 21 19 19 21 28 32 31 32 33 31 30 29 29 30 27 24 23 21 22 21 19 18 18 18 16 15 14 12 11 10 11 12 11 9 7 6 7 7 6 4 3 5 4 2 2 1 1 2 3 4 3 5 6 6 5 6 6 8 8 8 8 8 10 10 10 13 14 16 15
10 13 18 19 14 16 18 14 13 6 6 10 13 10 6 8 15 14 12 11 7 5 2 8 15 14 16 18 20 19 19 21 28 30 26 28 33 33 32 31 31 31 28 25 23 22 22 21 19 18 18 18 17 16 14 12 12 12 11 12 11 10 8 8 9 9 7 4 4 5 6 5 3 2 3 3 5 6 6 6 5 4 4 4 5 6 6 6 7 8 9 9 11 13 14 15 16
8 12 17 20 17 17 16 14 11 7 5 9 14 13 9 6 11 14 15 11 8 5 1 3 9 15 16 17 20 20 21 22 25 26 24 27 32 32 30 29 31 32 29 26 25 24 23 21 20 19 18 18 17 16 14 13 13 12 12 12 11 11 10 8 7 9 8 5 4 6 7 4 3 4 3 5 7 6 5 4 3 3 3 2 2 3 5 5 6 8 8 9 11 13 14 15 15
9 13 17 17 17 16 15 12 11 8 7 8 13 14 10 5 8 13 13 11 7 7 7 5 7 15 18 21 20 18 20 22 23 23 22 26 31 30 26 25 29 30 27 27 26 24 23 21 21 20 19 19 18 16 15 14 13 12 12 11 10 10 9 7 6 7 6 5 5 5 5 4 4 4 4 4 3 2 3 1 1 2 2 2 2 3 5 6 7 9 10 11 12 12 13 13 15
13 15 14 14 15 13 14 12 10 9 8 8 12 15 10 6 8 11 9 10 9 7 7 7 7 10 14 17 17 16 17 20 21 21 20 23 28 28 23 22 26 26 24 26 27 25 24 23 22 21 21 20 19 17 16 14 13 13 12 11 11 9 8 8 7 6 4 4 4 2 3 3 2 2 4 3 2 1 2 2 0 1 3 3 4 5 6 8 9 10 11 11 12 12 12 12 14
16 14 12 12 13 9 10 8 8 8 7 11 15 16 12 8 7 10 10 11 13 9 6 7 8 10 12 16 20 22 19 18 19 19 17 19 22 24 22 21 23 24 24 25 26 25 24 23 23 22 21 21 19 17 16 15 14 14 13 11 10 9 9 8 7 7 5 2 1 3 3 4 1 2 1 4 4 1 1 1 1 1 3 4 7 7 8 10 10 10 10 10 10 10 11 12 12
16 12 9 10 8 6 6 4 6 7 7 12 17 17 16 10 7 8 13 18 18 14 12 12 13 16 20 23 26 27 24 23 23 20 18 18 20 21 21 21 22 23 25 26 25 26 26 25 24 23 22 21 19 19 17 16 15 15 13 11 10 9 9 9 9 7 4 3 3 3 2 4 2 1 2 5 4 1 1 1 2 2 4 7 8 9 10 10 9 8 9 9 9 8 9 11 12
15 11 9 10 8 6 6 6 7 7 7 10 14 15 13 8 5 8 10 20 21 17 20 23 22 23 25 25 25 28 28 27 28 26 22 20 19 21 21 22 23 24 27 27 26 28 28 26 25 24 24 22 21 20 18 16 15 13 12 11 11 11 10 11 10 6 5 5 7 8 6 3 1 2 5 6 3 1 1 2 4 5 7 8 9 9 10 10 9 8 9 9 8 7 9 11 11
15 11 10 10 9 7 8 7 7 7 7 11 13 12 9 6 5 11 11 13 19 21 26 33 33 29 27 24 25 29 29 27 28 29 27 22 20 23 23 24 25 25 27 27 26 29 28 26 26 25 25 24 22 21 19 16 13 11 10 9 11 12 12 11 11 10 10 10 10 11 9 5 4 5 5 3 2 2 2 4 6 6 7 8 9 9 10 9 7 7 9 9 9 9 10 12 12
14 11 10 10 8 7 7 7 7 7 7 10 12 9 7 7 4 7 10 10 19 21 27 34 33 30 29 26 26 28 28 27 27 29 28 24 23 25 24 25 24 23 27 28 27 29 27 26 27 26 26 25 22 21 19 16 13 9 9 9 9 11 13 13 14 14 13 10 9 10 10 7 6 5 3 3 3 3 3 5 6 6 7 8 9 10 10 9 8 7 9 11 11 11 12 13 14
11 10 9 9 9 8 5 6 6 3 4 7 7 5 5 6 2 1 5 8 19 18 24 31 27 26 27 25 27 27 26 28 28 29 29 26 26 26 25 24 23 21 25 28 28 28 27 26 26 26 26 24 22 21 19 16 13 9 9 8 9 11 13 13 13 13 11 9 7 8 9 8 6 4 4 4 3 3 4 5 6 7 8 9 10 12 12 11 10 10 11 11 11 11 12 14 16
8 10 11 10 12 9 5 6 5 1 4 5 6 6 6 7 5 5 5 4 13 13 19 25 26 27 25 22 23 24 23 26 29 31 30 28 27 28 27 26 25 24 24 26 27 27 26 26 26 25 25 23 21 19 18 15 12 10 9 9 10 12 12 11 11 11 11 9 7 6 7 7 7 6 5 4 4 4 5 7 8 9 9 9 10 12 12 12 11 10 11 11 12 13 14 15 17
8 9 11 10 11 11 6 6 6 4 6 5 7 11 9 7 6 7 7 3 6 8 14 21 25 28 26 23 23 23 23 24 27 30 29 28 28 29 30 28 25 27 28 28 28 28 27 28 26 25 25 23 20 18 15 13 11 10 10 11 12 12 10 9 9 10 10 8 7 7 7 8 7 7 5 5 6 8 10 11 11 10 10 9 10 12 13 13 11 10 11 13 14 15 15 16 17
12 10 10 8 8 9 7 5 6 7 6 5 9 13 10 8 7 10 11 8 7 10 14 18 21 22 23 25 26 25 25 26 28 30 29 28 28 29 33 31 26 27 31 30 30 29 28 28 26 25 23 21 19 17 14 12 11 9 10 12 12 10 9 9 9 9 9 8 8 8 8 9 9 8 9 10 10 10 10 10 10 10 10 10 9 10 10 9 10 12 13 14 16 16 16 16 16
15 12 11 9 6 6 7 6 5 7 6 5 9 10 8 9 7 8 11 11 11 12 15 16 17 21 23 25 28 27 28 31 32 30 29 29 29 31 33 32 29 30 31 30 30 29 28 27 26 24 22 20 17 15 13 12 10 8 10 12 11 10 11 11 10 10 10 9 9 9 10 10 9 10 13 11 7 6 7 9 10 10 11 11 10 10 10 11 13 15 16 17 17 16 16 17 16
12 11 11 10 7 6 7 7 7 7 6 6 7 7 7 6 4 6 10 12 11 11 15 14 17 24 26 27 32 31 29 34 35 31 29 29 29 32 33 31 31 32 31 30 29 28 27 26 24 22 21 19 16 14 13 11 9 9 11 13 12 12 12 12 11 11 11 11 11 11 11 10 9 11 13 11 7 8 9 8 8 9 10 11 12 13 13 15 16 17 17 18 17 15 15 16 16
11 8 9 11 9 8 8 8 8 7 6 6 6 6 6 6 5 7 9 11 12 13 13 14 19 26 27 29 34 32 28 31 33 31 29 29 29 31 32 32 33 33 32 30 29 28 27 25 23 21 19 17 15 14 12 10 10 12 13 13 13 13 12 11 11 11 11 11 12 13 12 11 11 12 12 10 9 9 7 5 6 10 13 14 14 15 15 15 16 16 16 16 15 15 16 15 16
Wind_Direction
281 284 291 305 320 321 303 297 286 265 260 258 260 261 260 259 260 266 266 296 312 172 128 99 42 2 352 342 62 76 45 40 58 85 107 124 132 155 177 184 185 183 174 163 155 153 155 155 148 139 136 131 129 129 130 130 131 132 132 128 125 123 120 119 115 113 111 110 110 106 103 97 97 98 99 97 92 83 73 69 64 72 76 79 98 102 95 92 85 78 77 81 82 78 75 74 67
278 281 292 311 311 297 292 302 288 277 274 267 268 267 274 274 267 265 265 264 275 118 114 85 22 339 347 19 82 80 51 53 75 94 108 132 141 155 176 186 187 184 173 163 155 154 156 155 147 140 138 134 131 129 131 131 131 131 131 128 125 124 121 119 116 115 114 114 111 105 103 99 101 101 101 94 78 65 54 45 44 71 96 103 111 114 105 96 87 77 74 73 69 63 52 42 33
276 281 293 308 289 268 274 281 262 271 268 267 269 268 273 269 265 263 270 291 75 90 94 2 5 357 317 337 73 73 72 73 83 102 115 143 147 145 161 181 187 183 174 165 156 156 157 155 148 140 137 136 132 131 134 133 133 132 132 130 127 126 122 120 119 118 118 117 110 105 103 98 101 99 95 83 65 55 48 45 49 69 102 121 127 123 117 110 93 76 66 58 51 44 29 23 21
273 278 287 295 284 269 266 262 255 265 260 264 267 267 269 266 265 250 273 33 60 70 57 333 344 4 344 50 82 78 92 92 91 112 125 147 150 143 150 168 177 176 174 167 159 159 158 156 148 140 137 137 136 134 137 136 136 134 133 132 129 126 123 123 122 122 122 117 110 106 100 95 94 93 90 79 74 69 67 66 66 77 94 120 137 133 129 124 99 81 67 50 34 25 25 33 37
274 274 275 269 276 279 268 262 259 258 253 262 262 265 265 270 275 259 23 51 51 22 1 359 327 327 50 79 102 101 107 107 101 118 127 140 154 146 148 160 165 168 173 169 161 160 158 159 147 140 139 138 139 137 140 140 139 136 134 133 129 127 126 126 125 127 125 116 110 105 101 100 97 94 92 85 81 79 87 90 90 94 97 118 137 136 130 120 101 92 80 52 27 26 40 49 48
274 274 260 244 254 279 274 257 255 255 253 258 259 266 265 267 271 267 333 34 55 333 307 352 309 310 63 77 83 101 123 127 117 130 132 144 160 152 156 157 151 158 170 170 162 161 158 157 148 141 140 140 141 140 143 142 141 138 135 133 131 130 129 128 127 129 123 116 108 106 109 106 103 99 95 92 89 87 95 103 106 108 110 121 134 140 128 114 106 99 90 68 45 48 55 51 54
258 264 244 229 242 256 255 250 254 259 255 258 262 267 269 274 277 280 308 318 285 275 269 281 285 298 81 90 77 91 122 129 134 144 142 151 161 153 156 149 148 157 168 171 161 161 156 154 150 143 141 142 142 141 144 144 142 139 137 135 133 132 131 129 128 127 120 115 108 110 111 106 105 102 97 92 90 93 99 105 111 114 114 120 131 138 132 123 122 111 103 94 80 71 65 57 61
240 252 244 233 233 228 236 244 249 253 256 259 264 268 270 272 274 278 285 279 281 327 285 246 231 240 105 105 97 104 102 110 136 142 143 152 158 148 146 152 157 160 170 171 162 159 153 152 149 143 144 144 144 144 145 146 144 142 140 136 134 134 132 130 128 127 121 114 110 113 113 111 109 103 98 92 91 97 103 108 110 113 114 120 125 129 134 136 132 124 119 109 98 87 80 72 71
229 236 246 250 241 236 239 242 247 248 251 252 258 263 266 268 272 278 274 268 258 304 280 279 276 237 122 112 113 115 107 124 147 143 147 155 154 140 143 163 165 163 173 174 163 158 150 150 148 146 146 147 147 147 149 150 148 145 142 136 135 136 134 131 130 129 123 116 115 118 119 117 113 105 98 93 92 95 101 107 109 112 116 120 123 126 134 136 134 131 126 117 111 102 94 86 82
222 221 233 246 239 247 244 244 251 249 250 247 251 254 258 261 263 268 268 283 343 265 265 271 282 213 119 112 113 124 128 140 154 146 150 154 147 142 151 171 172 170 178 178 166 157 150 147 148 148 148 150 151 151 154 153 152 146 140 137 137 138 137 133 133 134 127 119 120 121 122 119 116 109 101 98 94 93 97 102 106 112 117 122 125 127 131 133 134 132 128 123 120 114 106 98 93
220 214 224 241 237 243 246 249 252 253 255 252 251 249 255 259 257 260 255 213 51 273 276 275 269 141 114 104 110 131 139 144 154 146 148 148 144 146 158 172 178 178 178 174 166 156 151 147 147 149 151 153 154 154 156 155 150 143 140 140 140 142 141 138 140 138 129 123 123 122 122 123 120 113 106 102 98 95 96 96 102 109 116 125 127 130 134 137 135 135 132 129 130 127 120 111 106
227 211 216 234 238 240 246 249 253 256 256 255 255 247 246 251 249 254 260 94 246 266 268 266 258 147 115 102 121 140 142 149 153 147 147 146 147 149 161 173 174 174 174 170 163 156 154 151 149 149 153 154 156 156 155 154 146 143 144 144 145 146 145 144 146 139 133 126 121 123 123 125 124 118 111 105 103 101 98 97 96 103 114 123 130 135 139 141 141 141 138 138 147 144 141 131 124
228 225 218 226 238 245 250 250 255 257 255 256 259 258 251 248 245 248 296 337 257 263 253 252 244 158 122 115 136 147 142 151 151 148 149 148 152 152 163 173 170 175 177 170 161 157 157 156 154 151 154 155 157 157 155 152 146 146 148 148 150 150 150 149 148 141 137 125 115 123 123 126 125 120 115 108 107 104 100 100 96 98 104 118 129 138 144 150 152 151 151 157 166 167 168 161 158
225 235 237 237 236 240 251 252 258 258 257 256 254 263 263 257 249 257 315 277 253 252 257 256 209 124 125 129 141 150 146 155 153 149 151 151 154 154 161 163 169 181 173 170 162 156 159 158 158 153 153 156 158 157 155 153 150 151 151 152 153 152 155 152 150 142 133 123 114 121 125 123 121 119 113 108 109 107 101 97 96 95 91 99 117 135 148 156 163 169 172 180 191 196 201 200 207
226 237 244 251 246 238 243 244 253 258 261 265 263 272 276 270 102 96 249 263 276 261 262 251 210 135 145 157 158 158 154 156 155 150 150 152 155 158 160 153 157 160 155 164 157 155 161 159 161 156 155 157 158 159 158 158 155 155 155 156 156 156 158 155 150 136 128 122 116 121 122 110 97 96 103 104 101 100 95 85 81 81 78 71 69 95 138 159 171 181 188 200 210 218 230 232 238
225 238 246 243 249 244 241 242 248 252 253 266 305 21 25 94 179 218 231 236 266 269 269 249 238 228 178 168 162 161 158 155 153 151 151 152 157 159 157 151 149 148 150 155 152 159 164 162 163 160 160 160 161 163 160 160 160 159 160 159 161 161 159 157 147 133 126 117 121 122 112 103 81 66 88 107 91 76 64 57 69 67 58 54 46 37 19 303 222 214 215 220 227 235 244 249 255
221 234 245 238 243 242 243 244 246 253 250 249 241 142 200 221 200 190 211 230 253 263 263 255 253 248 176 151 153 156 155 152 153 153 152 154 158 159 156 154 154 154 155 151 158 171 169 164 165 163 162 163 166 166 162 161 162 162 163 162 165 165 160 152 135 127 124 116 121 115 103 100 60 32 34 92 73 67 54 42 53 59 49 38 19 14 2 326 310 294 284 275 268 264 262 263 263
218 224 236 239 239 238 243 246 252 265 269 250 199 190 227 237 222 180 187 210 235 253 259 254 140 103 114 130 145 149 150 153 156 156 154 157 161 161 158 161 160 157 156 154 167 184 179 167 170 167 162 166 169 167 166 163 163 164 165 166 166 163 154 140 128 123 120 119 116 108 111 90 38 359 321 44 73 73 62 49 46 43 34 24 5 352 343 328 317 312 309 299 293 287 280 277 275
220 228 229 236 241 244 247 249 256 258 262 256 207 155 296 262 263 247 205 210 223 225 244 232 105 102 118 131 141 144 150 156 159 159 157 160 164 165 162 164 163 158 159 159 170 184 171 164 171 165 162 170 171 169 169 164 164 165 166 167 163 157 147 139 134 132 131 135 128 119 120 88 59 314 321 41 77 80 58 39 36 33 21 10 358 355 344 329 324 322 322 315 308 300 295 295 290
217 229 233 234 238 248 252 249 251 251 255 270 285 87 154 251 261 262 256 248 245 226 228 218 125 118 128 134 141 145 152 158 161 163 160 163 166 167 165 166 165 161 163 164 172 175 158 163 167 161 168 177 169 168 171 165 165 165 163 160 155 152 147 145 145 152 157 152 153 132 93 101 184 226 249 63 73 69 38 19 10 7 5 357 344 347 341 324 316 315 321 316 311 310 307 307 305
212 223 236 240 237 239 249 250 251 256 262 281 305 2 185 231 246 245 251 246 255 236 223 216 142 132 137 139 146 150 155 160 163 167 163 165 167 166 167 167 165 162 166 166 170 168 159 164 161 165 174 164 160 168 171 164 160 160 156 150 150 152 151 160 162 165 162 149 187 138 131 254 222 216 227 77 33 1 4 354 349 343 338 341 338 339 334 319 303 303 306 298 304 313 308 313 325
214 225 233 241 247 241 239 245 251 259 258 252 264 268 244 241 243 234 247 248 256 245 232 216 152 140 147 147 149 155 161 165 168 172 168 168 167 166 168 167 165 163 167 165 165 165 163 164 162 172 165 148 163 170 161 156 155 160 158 154 159 158 158 173 162 151 176 178 188 166 191 236 193 169 233 115 31 351 319 322 331 327 327 332 331 332 326 314 304 306 304 297 305 310 306 312 313
222 231 232 236 245 253 252 252 259 257 256 256 249 263 269 265 256 236 241 250 260 265 273 232 155 147 155 153 155 161 166 170 173 177 172 170 169 167 167 167 166 164 166 165 165 165 165 164 167 171 150 149 167 152 146 150 155 159 160 169 171 162 160 171 155 159 211 207 190 184 188 186 154 168 219 148 305 230 258 300 315 315 320 319 316 320 315 309 307 307 305 302 302 300 300 293 276
226 233 235 235 237 246 258 263 267 231 246 265 259 262 257 252 257 245 245 246 255 262 280 261 158 148 155 154 160 168 173 178 179 180 174 170 168 166 166 166 165 165 166 166 166 166 166 167 170 161 145 153 159 150 162 157 152 157 165 176 169 169 167 164 172 191 223 223 191 183 164 140 145 191 211 249 271 259 279 301 302 305 308 300 304 309 303 301 300 296 293 290 286 286 287 282 272
224 235 239 240 238 238 248 255 254 225 225 246 252 259 252 250 254 249 250 239 243 244 246 259 162 146 151 152 161 171 177 182 180 179 173 169 169 167 166 165 166 167 169 168 166 166 166 168 167 157 150 155 158 166 177 160 157 169 173 173 169 182 178 168 189 206 223 213 169 156 143 163 192 188 216 269 282 284 299 309 301 297 290 285 299 304 298 297 295 290 290 288 281 279 279 278 277
217 229 239 242 245 239 239 243 243 230 226 232 238 249 246 248 251 247 252 244 248 235 214 243 161 144 148 152 164 174 177 181 174 172 174 173 174 171 166 167 168 168 170 168 163 164 166 164 162 160 155 157 164 171 175 162 168 181 175 169 181 193 181 177 198 209 207 171 149 145 147 176 190 186 209 244 263 283 293 307 306 309 307 302 302 298 298 299 298 296 297 299 295 289 288 284 282
224 227 233 235 246 248 242 240 238 230 229 236 239 248 242 239 239 236 244 237 244 240 200 206 158 138 148 156 168 177 175 176 169 169 178 179 178 174 169 168 168 168 169 164 161 163 163 163 163 161 154 157 169 164 163 170 176 184 176 172 189 190 179 190 200 195 184 173 160 155 166 175 190 213 206 228 257 282 289 301 308 314 316 311 309 309 309 305 303 303 304 307 304 300 298 294 290
239 238 234 229 238 248 248 240 237 236 233 234 237 250 247 236 234 231 238 230 229 230 195 191 178 146 159 164 168 178 176 175 172 172 181 185 180 173 170 169 167 168 166 161 163 164 159 161 160 147 145 159 164 150 163 181 176 176 175 178 185 176 186 199 187 177 183 189 188 179 184 184 189 206 216 242 246 260 274 290 306 311 312 312 319 321 316 312 309 309 314 315 310 306 304 303 300
243 243 241 233 234 241 244 236 227 230 234 230 228 241 244 235 234 229 234 236 223 211 196 200 187 162 172 173 172 181 182 182 178 178 183 185 180 171 170 172 170 166 163 162 162 159 156 157 144 136 156 169 154 155 178 179 167 168 171 181 181 178 196 193 173 178 189 190 190 188 193 193 189 201 231 254 263 269 265 271 285 295 306 315 319 320 321 323 322 321 322 321 318 313 310 310 307
244 241 240 239 238 234 233 232 223 224 229 225 223 234 237 231 235 233 229 226 202 189 207 205 177 170 183 181 179 181 183 186 182 180 182 184 181 173 170 172 169 162 160 162 159 156 159 153 139 147 176 166 149 173 183 162 162 166 162 176 179 182 192 179 176 183 185 194 193 190 191 193 206 219 238 281 295 289 272 276 291 304 314 320 322 325 328 325 322 322 320 318 316 313 310 311 309
237 236 238 235 243 238 224 220 216 223 222 217 225 237 238 237 227 214 187 181 185 195 210 203 184 187 191 185 180 172 173 181 184 185 185 185 184 177 171 168 163 158 157 159 157 155 155 146 144 165 176 155 157 182 173 153 158 158 161 181 179 175 176 171 183 185 186 194 187 195 200 196 212 236 269 330 330 332 354 313 308 318 320 319 323 329 328 324 321 317 314 315 316 315 314 315 315
224 224 230 224 234 245 229 213 207 218 215 210 222 232 238 254 214 177 163 170 184 195 197 201 208 202 191 181 172 168 172 177 182 188 192 190 184 175 169 165 160 157 158 157 150 144 143 145 157 175 165 151 165 171 155 153 159 165 176 186 175 167 170 167 178 193 202 195 184 198 209 188 187 214 311 345 349 345 348 316 305 311 314 315 322 327 323 320 317 312 312 315 316 316 317 317 315
217 218 226 222 222 235 238 217 202 207 212 208 214 231 236 210 138 157 162 170 177 178 174 191 221 211 184 170 156 156 167 171 175 187 204 202 183 166 159 158 157 154 155 155 145 141 146 154 166 172 156 152 162 151 150 164 169 178 181 179 172 166 168 169 176 197 218 208 190 195 204 159 149 140 306 315 328 323 319 313 303 303 306 307 315 319 317 320 318 312 312 313 313 313 314 315 313
210 210 225 230 226 226 237 230 197 194 209 211 205 225 231 136 130 150 152 168 176 167 154 183 221 223 134 128 118 125 143 152 167 191 232 213 168 152 143 141 144 142 144 145 141 142 150 155 159 158 150 151 155 149 159 170 172 176 176 175 171 168 174 175 179 188 213 220 196 188 197 141 137 189 250 269 279 285 306 304 292 290 297 306 314 313 312 322 317 306 305 307 310 311 313 315 315
209 207 213 229 235 226 231 236 187 180 204 214 206 211 192 135 137 155 152 172 186 172 176 194 198 109 94 120 117 128 147 150 174 195 210 168 158 153 143 136 139 140 137 136 137 142 146 146 149 145 143 149 153 155 164 169 168 168 172 174 166 167 173 167 179 186 213 229 199 180 174 143 172 223 244 251 251 256 261 275 281 287 301 311 312 304 298 302 300 299 306 310 313 316 319 320 320
212 212 210 217 235 227 231 238 183 173 200 212 210 208 189 158 154 163 161 180 195 184 194 186 113 94 112 150 148 152 153 130 165 190 155 141 152 150 154 154 151 147 142 141 143 148 151 151 150 147 147 154 158 160 165 169 171 170 168 169 163 161 156 158 183 190 211 225 197 178 159 162 217 221 237 249 248 253 253 264 279 290 304 307 300 300 304 309 313 321 327 324 325 325 322 325 329
227 217 216 214 231 230 225 236 195 173 196 212 212 213 199 176 162 167 166 179 195 186 197 156 100 96 113 147 156 155 141 109 130 160 135 139 150 144 156 159 149 145 145 147 148 153 158 156 153 153 156 161 163 164 168 173 176 173 166 162 161 156 154 169 183 186 200 196 167 189 174 184 231 229 233 244 244 245 253 266 281 291 296 302 302 310 321 328 337 342 337 332 332 328 328 338 337
244 231 226 210 226 236 218 231 209 174 188 214 211 218 213 186 168 168 165 175 192 190 200 143 110 119 126 129 141 156 157 123 123 146 146 153 152 138 147 155 152 150 147 149 151 155 159 158 158 160 162 166 168 167 171 175 176 173 164 159 161 161 163 171 178 182 181 170 179 203 197 197 227 256 257 277 292 281 284 286 291 297 301 312 313 319 332 340 346 344 338 333 332 331 335 344 334
245 241 240 214 217 237 221 226 217 175 179 216 202 214 233 197 168 167 167 174 189 194 197 145 131 143 144 144 152 172 184 153 140 153 156 158 153 143 146 152 156 155 153 155 155 159 163 164 167 169 169 171 169 169 173 171 169 170 163 159 159 158 160 162 173 182 175 187 207 215 211 202 187 349 326 7 333 308 316 310 296 298 305 312 318 333 343 353 352 345 340 336 338 339 338 342 336
239 240 242 227 213 223 228 219 201 163 173 227 210 203 239 210 153 157 178 176 181 191 187 147 144 153 152 155 155 164 178 164 155 162 162 159 155 155 155 154 157 157 158 163 161 166 170 169 172 173 172 171 168 170 172 166 164 168 163 162 161 155 160 166 171 184 204 230 234 230 211 166 127 202 228 41 300 299 318 319 316 327 339 346 354 360 3 8 2 352 346 342 341 337 335 345 350
230 236 240 237 212 212 233 214 163 157 185 223 239 213 232 212 149 154 185 176 174 185 181 141 138 157 164 163 158 160 171 167 162 164 165 163 159 161 162 160 162 161 164 171 168 170 174 173 173 171 166 165 167 169 170 164 161 168 165 164 165 160 168 180 176 201 244 250 250 270 248 136 146 223 251 331 320 326 334 340 355 11 8 5 8 14 14 6 360 351 342 341 341 336 335 344 350
222 228 234 240 225 215 226 184 137 175 207 207 232 237 231 187 155 153 163 160 143 133 176 141 138 166 175 171 172 168 168 168 165 165 166 166 161 159 163 167 167 164 169 174 168 170 175 175 170 166 164 164 166 167 170 166 159 169 171 166 167 162 164 181 187 207 236 245 265 283 278 269 271 271 356 344 351 354 360 17 20 19 8 2 8 13 5 349 348 346 341 342 344 341 338 340 343
219 214 227 243 249 236 220 173 148 189 224 206 216 231 237 178 158 150 142 141 114 55 39 120 133 171 184 179 183 179 174 170 166 166 169 167 160 155 160 168 166 164 170 172 164 168 175 174 166 164 164 163 162 161 164 164 160 170 179 177 171 164 170 187 194 205 216 228 259 277 280 275 294 12 20 17 17 3 12 31 18 2 358 5 15 3 342 333 341 349 354 354 350 347 343 341 342
217 200 218 237 248 251 238 207 191 195 217 223 214 217 240 211 157 145 140 133 124 118 109 105 143 173 192 199 193 183 176 169 164 168 171 167 160 157 159 163 164 165 169 169 163 166 173 169 163 162 159 157 157 154 156 163 169 177 181 180 166 155 178 199 205 216 221 223 239 265 277 289 7 25 21 39 34 2 360 18 350 340 343 350 15 342 330 342 353 7 15 5 357 354 348 346 347
219 206 211 227 239 253 264 249 226 209 214 234 213 206 233 233 145 141 143 136 144 166 170 182 177 174 189 202 198 190 178 167 164 167 169 167 161 161 161 159 162 165 167 167 164 165 168 164 158 158 154 154 154 153 159 167 174 180 176 172 159 154 182 211 224 228 230 235 242 266 297 348 20 15 25 42 42 332 310 303 305 327 320 319 349 359 4 13 20 29 26 11 3 359 353 352 351
219 218 205 217 232 246 268 255 217 210 223 240 220 201 216 233 158 147 145 146 169 191 172 172 186 183 188 192 195 202 186 166 164 164 163 163 161 163 166 157 158 162 161 164 165 164 164 161 157 156 153 155 155 156 164 167 168 169 164 160 157 165 193 208 217 226 233 252 256 289 345 350 342 14 21 348 315 330 294 271 85 344 321 345 12 24 29 34 41 37 22 12 7 357 353 354 352
216 225 202 206 221 233 271 258 201 208 221 235 232 205 199 233 200 166 161 165 170 170 169 173 184 196 197 192 197 204 191 166 160 157 150 152 155 165 172 163 158 158 159 163 165 162 160 159 159 156 154 155 155 156 162 164 163 161 162 162 162 180 204 202 209 223 222 236 29 44 334 311 311 91 29 298 295 330 277 291 66 11 348 17 26 30 35 43 48 32 10 9 9 357 352 353 352
212 226 205 198 202 213 262 251 204 225 221 225 233 215 201 211 223 193 166 165 166 160 171 183 183 190 194 193 192 189 180 167 156 145 144 151 154 162 170 164 160 160 163 165 164 160 158 159 160 155 152 154 154 157 161 166 167 163 163 166 167 177 195 202 209 212 189 157 105 93 300 306 8 75 256 265 273 259 210 41 64 41 29 33 30 31 40 48 48 25 1 358 358 349 345 347 344
210 221 209 195 178 188 222 212 213 236 238 232 229 224 221 208 213 235 186 164 168 167 170 177 179 182 184 182 177 172 168 165 158 147 151 163 162 161 162 163 168 169 167 165 161 158 157 158 158 153 152 155 156 159 162 166 171 168 161 168 179 183 196 209 208 189 159 173 174 169 190 217 174 230 252 247 242 163 92 59 59 46 37 37 34 38 47 51 46 22 360 355 354 345 347 351 348
205 208 211 201 178 184 207 202 211 225 239 251 238 221 239 261 225 229 222 169 166 175 169 171 174 172 171 169 166 166 164 163 159 152 157 168 168 166 166 168 173 170 164 162 158 157 156 156 156 155 154 156 158 161 163 165 170 170 170 187 196 191 195 200 187 173 178 196 196 185 186 190 204 227 236 218 125 88 66 55 58 48 40 40 38 41 46 46 36 12 4 13 23 17 12 13 12
203 201 212 213 192 188 201 204 210 216 222 239 244 218 209 262 250 213 229 173 157 172 167 164 168 164 160 159 159 164 165 161 157 155 163 171 169 170 173 172 171 164 161 163 160 157 156 156 157 158 157 157 160 164 167 169 170 174 189 201 194 185 192 195 187 183 186 197 198 183 177 181 204 217 180 126 111 97 77 67 65 54 44 43 43 43 46 44 35 25 23 30 34 24 18 21 20
198 189 203 215 208 192 187 212 211 220 236 219 234 236 192 219 214 64 266 172 145 162 167 160 161 158 154 153 155 160 162 161 158 159 166 170 167 168 171 171 167 161 160 164 163 158 156 159 161 161 159 158 162 167 171 173 175 185 198 192 181 185 195 197 196 190 182 184 187 177 176 183 188 174 138 123 114 95 85 75 66 56 47 46 47 45 42 39 37 36 28 25 28 21 17 23 23
191 187 202 208 216 212 179 203 206 144 261 213 196 232 218 209 191 77 16 137 143 166 171 157 153 153 151 153 158 158 156 160 163 165 168 167 165 167 169 169 165 160 159 162 162 159 159 163 165 165 162 161 165 170 172 175 182 196 192 179 185 196 198 194 192 186 177 176 177 169 170 171 163 153 139 126 119 97 79 66 52 44 42 45 51 46 37 27 28 34 27 23 28 26 26 32 32
194 189 202 202 217 228 199 192 204 200 234 221 203 221 216 222 209 117 93 139 153 157 157 150 150 150 149 153 161 161 154 157 162 166 169 165 164 167 169 169 167 164 163 162 163 163 163 164 167 167 165 165 170 174 174 178 193 201 182 174 187 193 189 182 178 172 164 163 167 165 164 159 151 146 127 99 83 66 58 58 48 32 25 33 48 52 42 23 19 33 37 36 36 29 32 38 36
210 193 197 207 212 219 208 195 200 202 216 220 222 222 211 223 216 146 148 176 157 133 138 149 152 149 149 151 156 161 160 160 163 165 166 165 165 167 167 168 167 166 166 165 165 166 163 160 162 163 162 165 172 177 181 189 199 197 176 173 181 181 174 169 165 159 155 161 168 162 157 154 145 129 97 74 70 70 69 68 58 38 22 21 38 59 57 32 26 39 43 43 40 30 30 33 29
212 198 195 218 221 207 207 202 197 204 207 212 226 224 211 223 216 166 171 182 175 153 142 152 157 153 155 152 151 158 164 166 167 165 164 165 166 167 167 169 167 165 167 166 164 166 165 162 161 162 164 168 172 176 186 193 194 183 169 169 170 170 171 169 162 160 162 165 160 153 153 148 136 116 99 91 93 90 81 79 71 55 35 23 30 53 59 45 37 38 37 38 38 30 24 22 18
204 202 192 205 213 206 211 209 204 206 204 208 223 226 217 220 226 215 198 183 183 172 153 158 162 156 155 154 155 161 168 169 168 164 163 163 166 167 166 167 168 165 165 163 162 165 167 164 166 169 172 173 174 178 189 191 180 168 168 171 168 165 169 170 165 165 166 161 154 153 150 137 122 111 109 115 103 73 75 85 82 71 54 37 37 48 53 50 42 34 31 36 37 27 18 15 11
196 212 198 198 202 202 207 208 209 206 202 210 219 232 227 185 182 236 218 176 182 194 179 162 155 153 153 158 163 166 167 169 167 164 164 163 164 166 163 164 171 171 166 161 161 164 165 165 169 172 170 171 174 178 187 183 169 169 174 175 170 165 165 164 159 156 154 153 154 154 147 133 120 107 103 108 100 88 99 104 78 76 66 48 41 42 45 53 53 41 34 36 36 26 21 17 7